Simultaneous Nadir Overpasses (SNOs) Predictions

Prediction of SNOs between AURA and NPP Satellite Orbit:

Table of predicted SNOs for the next 14.0 days since TLE Epoch: 8/6/2022
Index Date (AURA) Time (AURA) Lat,Lon (AURA) SZA (AURA ) Date (NPP) Time (NPP) Lat,Lon (NPP) SZA (NPP ) Distance(km) Time Diff (sec)
1 08/08/2022 02:52:40 -79.20,-148.24 102.83 08/08/2022 02:51:36 -79.20,-148.33 102.76 2.16 64
2 08/08/2022 03:41:57 79.55, 21.69 76.68 08/08/2022 03:42:10 79.55, 21.75 76.66 1.42 13
3 08/10/2022 19:09:07 -79.32, -31.63 102.25 08/10/2022 19:08:30 -79.31, -31.74 102.20 2.44 37
4 08/10/2022 19:58:25 79.62, 138.05 77.32 08/10/2022 19:59:05 79.62, 138.11 77.28 1.34 40
5 08/13/2022 11:25:34 -79.42, 84.93 101.63 08/13/2022 11:25:24 -79.42, 84.86 101.61 1.47 10
6 08/13/2022 12:14:52 79.71,-105.37 77.95 08/13/2022 12:15:59 79.72,-105.25 77.88 2.47 67
7 08/16/2022 02:52:41 79.23, 31.90 79.44 08/16/2022 02:51:41 79.23, 31.85 79.49 1.07 60
8 08/16/2022 03:42:00 -79.55,-158.30 101.03 08/16/2022 03:42:17 -79.55,-158.27 101.05 0.74 17
9 08/18/2022 19:09:04 79.42, 149.08 79.97 08/18/2022 19:08:31 79.43, 149.19 79.97 2.37 33



Historial Predications of SNOs between AURA and NPP
